CZ-6A DEB

Satellite information

Favourite Embed

Satellite Type and Status

DEBRISIN ORBIT

Key statistics

Satellite CZ-6A DEB at a glance.

Uptime

1027

Days in orbit

Revolutions

≈ 14.6

Per day

Orbit

SSO

Sun Synchronous Orbit

Inclination

98.6

Latest

Satellite identification and parameters

Extended collection of information and parameters for CZ-6A DEB.

Object identification

Identified? True

Debris? True

Object name: CZ-6A DEB

International designator: 2022-151WL

Object number (NORAD): 55219

Object ID (CCSDS): 55219

Country: PEOPLES REPUBLIC OF CHINA (PRC)

Current information (Y/N): Y

RCS size: SMALL

Orbital parameters

Period: 98.825 minutes

Inclination: 98.6374 deg

SMA: 7080.633 km

Apoapsis: 766.681 km

Periapsis: 638.314 km

RAAN: 287.9412 deg

Eccentricy: 0.00906462

Argument of periapsis: 105.3575 deg

Mean anomaly: 255.766 deg

Mean motion: 14.57117848 rev/day

Mean motion (dot): 0.00019225 rev/day2

B* drag term: 0.0040329846 1/REarth

Two-line elements (TLE)

Creation date: Sept. 3, 2025, 2:21 a.m.

Reference frame: TEME

Reference center: EARTH

Epoch: Sept. 2, 2025, 8:15 p.m. UTC

TLE line 0: 0 CZ-6A DEB

TLE line 1: 1 55219U 22151WL 25245.84415534 .00019225 00000-0 40330-2 0 9996

TLE line 2: 2 55219 98.6374 287.9412 0090646 105.3575 255.7660 14.57117848142571

Live tracking on map

Real-time ground track for satellite CZ-6A DEB.

In-orbit conjunctions

A list of the most updated potential collisions computed for object CZ-6A DEB.

Target Orbit TCA Probability of collision Miss distance Type
CZ-4C R/B SSO 2024-08-15 15:06:28 0.0001480174 269.0 (m) ROCKET BODY

Associated space launch

Chinese satellite reported for atmospheric/ocean/environmental/spatial parameter research purposes, details TBD.

CZ-6A DEB was lifted into orbit during the mission ‘Long March 6A | Yunhai 3’, on board a Long March 6A space rocket.

The launch took place on Nov. 11, 2022, 10:52 p.m. from Launch Complex 9A.

For more information about the launch, click the button.

Launch to space Long March 6A | Yunhai 3
Long March 6A | Yunhai 3

Agency: N/A

Status: Launch Successful

Launch date: Nov. 11, 2022, 10:52 p.m. UTC

Rocket: Long March 6A

Launch pad: Launch Complex 9A

Location: Taiyuan Satellite Launch Center, People's Republic of China

...

Latest news about this satellite

There are no fresh news available about this satellite. Check back as we update our databases every day.


Newsletter sign-up

Weekly statistics, charts and insights to help you stay on top of the space industry.